Simultaneous Nadir Overpasses (SNOs) Predictions

Prediction of SNOs between NOAA-19 and NPP Satellite Orbit:

Table of predicted SNOs for the next 14.0 days since TLE Epoch: 8/11/2016
Index Date (NOAA-19) Time (NOAA-19) Lat,Lon (NOAA-19) SZA (NOAA-19 ) Date (NPP) Time (NPP) Lat,Lon (NPP) SZA (NPP ) Distance(km) Time Diff (sec)
1 08/12/2016 19:49:18 -80.98, 10.01 109.86 08/12/2016 19:50:20 -80.97, 10.03 109.90 0.99 62
2 08/12/2016 20:40:16 80.98, 177.30 70.16 08/12/2016 20:41:05 80.97, 177.28 70.13 0.81 49
3 08/12/2016 21:31:20 -80.98, -15.49 109.83 08/12/2016 21:31:50 -80.97, -15.40 109.87 1.82 30
4 08/12/2016 22:22:18 80.98, 151.79 70.18 08/12/2016 22:22:35 80.98, 151.86 70.16 1.35 17
5 08/12/2016 23:13:22 -80.98, -41.00 109.81 08/12/2016 23:13:20 -80.98, -40.82 109.84 3.17 2
6 08/13/2016 00:04:20 80.98, 126.27 70.20 08/13/2016 00:04:05 80.98, 126.43 70.19 2.84 15
7 08/13/2016 00:55:23 -80.98, -66.14 109.84 08/13/2016 00:54:50 -80.98, -66.25 109.81 2.04 33
8 08/13/2016 01:46:21 80.98, 101.13 70.17 08/13/2016 01:45:35 80.98, 101.01 70.21 2.23 46




NCC Satellite Simultaneous Nadir Overpasses (SNOs) Prediction Service
